Satellite-Ground Cal/Val Region Overpasses Predictions

Prediction of Satellite NPP Overpassing Cal/Val Region: PacNW

Region Location: (Latitude: 10.00, Longitude: 139.50) to (Latitude: 22.70, Longitude: 165.60).

Table of predicted overpasses for the next 14.0 days since TLE Epoch: 2/15/2013
Interval Starting Time Starting Location Ending Time Ending Location
1 02/16/2013 02:50:26 ( 10.06, 156.68) 02/16/2013 02:54:01 ( 22.68, 153.67)
2 02/16/2013 15:22:19 ( 22.69, 153.93) 02/16/2013 15:25:55 ( 10.01, 150.91)
3 02/17/2013 02:31:25 ( 10.01, 161.44) 02/17/2013 02:35:01 ( 22.69, 158.42)
4 02/17/2013 15:03:19 ( 22.67, 158.68) 02/17/2013 15:06:54 ( 10.06, 155.68)
5 02/18/2013 02:13:10 ( 12.67, 165.59) 02/18/2013 02:16:00 ( 22.65, 163.19)
6 02/18/2013 03:53:54 ( 10.03, 140.82) 02/18/2013 03:55:30 ( 15.67, 139.51)
7 02/18/2013 14:44:18 ( 22.66, 163.43) 02/18/2013 14:47:53 ( 10.04, 160.43)
8 02/19/2013 03:34:54 ( 10.04, 145.57) 02/19/2013 03:38:29 ( 22.66, 142.57)
9 02/19/2013 14:28:22 ( 11.85, 165.60) 02/19/2013 14:28:53 ( 10.03, 165.18)
10 02/19/2013 16:06:48 ( 22.65, 142.81) 02/19/2013 16:10:23 ( 10.03, 139.80)
11 02/20/2013 03:15:54 ( 10.05, 150.32) 02/20/2013 03:19:29 ( 22.67, 147.32)
12 02/20/2013 15:47:46 ( 22.70, 147.57) 02/20/2013 15:51:22 ( 10.02, 144.56)
13 02/21/2013 02:56:52 ( 10.00, 155.09) 02/21/2013 03:00:28 ( 22.69, 152.07)
14 02/21/2013 15:28:46 ( 22.69, 152.33) 02/21/2013 15:32:22 ( 10.01, 149.31)
15 02/22/2013 02:37:52 ( 10.02, 159.84) 02/22/2013 02:41:28 ( 22.70, 156.82)
16 02/22/2013 15:09:45 ( 22.68, 157.08) 02/22/2013 15:13:20 ( 10.06, 154.07)
17 02/23/2013 02:18:51 ( 10.03, 164.59) 02/23/2013 02:22:26 ( 22.65, 161.58)
18 02/23/2013 14:50:45 ( 22.67, 161.83) 02/23/2013 14:54:20 ( 10.05, 158.82)
19 02/24/2013 03:41:21 ( 10.04, 143.97) 02/24/2013 03:44:56 ( 22.66, 140.96)
20 02/24/2013 14:32:52 ( 18.67, 165.60) 02/24/2013 14:35:19 ( 10.04, 163.58)
21 02/24/2013 16:13:14 ( 22.66, 141.21) 02/24/2013 16:15:13 ( 15.68, 139.51)
22 02/25/2013 03:22:20 ( 10.05, 148.72) 02/25/2013 03:25:55 ( 22.67, 145.71)
23 02/25/2013 15:54:14 ( 22.65, 145.96) 02/25/2013 15:57:49 ( 10.03, 142.95)
24 02/26/2013 03:03:19 ( 10.00, 153.48) 02/26/2013 03:06:55 ( 22.68, 150.46)
25 02/26/2013 15:35:13 ( 22.70, 150.72) 02/26/2013 15:38:49 ( 10.02, 147.70)
26 02/27/2013 02:44:18 ( 10.01, 158.23) 02/27/2013 02:47:54 ( 22.69, 155.21)
27 02/27/2013 15:16:12 ( 22.69, 155.47) 02/27/2013 15:19:48 ( 10.01, 152.46)
28 02/28/2013 02:25:18 ( 10.02, 162.99) 02/28/2013 02:28:53 ( 22.64, 159.98)
29 02/28/2013 14:57:12 ( 22.68, 160.23) 02/28/2013 15:00:48 ( 10.00, 157.21)
30 03/01/2013 02:08:53 ( 19.19, 165.59) 03/01/2013 02:09:52 ( 22.65, 164.73)
31 03/01/2013 03:47:47 ( 10.03, 142.36) 03/01/2013 03:51:12 ( 22.07, 139.50)
32 03/01/2013 14:38:11 ( 22.67, 164.98) 03/01/2013 14:41:46 ( 10.06, 161.97)


NCC Satellite Cal/Val Overpasses Prediction Service
